Content
SEND FEEDBACK

Daily
Averages
Monthly
Summary
France

BORDEAUX, FRANCE


Home > Europe > France
Elevation: 200 feet     Latitude: 44 50N     Longitude: 000 42W

WEATHER
 
SELECT A DAY
Number of Records: 320,521;   Date Range: 7/1/96 - 7/23/14
 
SHARE

PRINT THIS DATA

[ ← Previous Day ]
WEATHER ALMANAC - JANUARY 1, 2013
[ Next Day → ]
[ °C ]   °F
Weather ElementAverageHighLow
Temperature49 °F53.6 °F (2:30 pm)42.8 °F (10:30 pm)
Dewpoint46.5 °F50 °F (5:30 am)41 °F (10:00 pm)
Humidity91.4 %100 % (2:30 am)71 % (4:30 pm)
Barometer30.00 in30.21 in (11:30 pm)29.89 in (1:00 am)
Wind Speed8.2 mph15 mph (2:00 am)
Weather ElementAverage
Visibility6.1 mi
Wind DirectionWSW (259.6 °)

Weather ElementTotal
Precipitation---
Heating Degree Days16.8 (Base 65)
Averaged from 51 records on January 1, 2013
WEATHER CONDITIONS BREAKOUT
WIND DIRECTION BREAKOUT
WEATHER BY HOUR - JANUARY 1, 2013
[ °C ]   °F
Local TimeTemperatureDewpointHumidityBarometerVisibilityWind DirectionWind SpeedGust SpeedPrecipitationEventsConditions
12:30 AM48.2 °F46.4 °F93 %29.92 in6.2 miSSW (200°)11.5 mphRainLight Rain
1:00 AM47.0 °F47.0 °F99 %29.92 inSouth (190°)11.5 mphRainLight Rain
1:00 AM48.2 °F46.4 °F93 %29.89 in6.2 miSouth (190°)11.5 mphRainLight Rain
1:30 AM48.2 °F46.4 °F93 %29.89 in6.2 miSouth (190°)11.5 mphRainLight Rain
2:00 AM48.2 °F46.4 °F93 %29.89 in6.2 miSouth (190°)15.0 mphRainLight Rain
2:30 AM48.2 °F48.2 °F100 %29.89 in6.2 miSouth (190°)12.7 mphRainLight Rain
3:00 AM48.2 °F48.2 °F100 %29.89 in3.1 miSW (220°)9.2 mphRainRain
3:30 AM48.2 °F48.2 °F100 %29.89 in6.2 miSSW (200°)10.4 mphRainLight Rain
4:00 AM48.2 °F48.2 °F100 %29.89 in6.2 miSouth (190°)8.1 mphRainLight Rain
4:30 AM48.2 °F48.2 °F100 %29.89 in6.2 miSSW (210°)6.9 mphMostly Cloudy
5:00 AM50.0 °F48.2 °F94 %29.89 in6.2 miSW (220°)6.9 mphLight Drizzle
5:30 AM50.0 °F50.0 °F100 %29.89 in6.2 miSW (220°)8.1 mphMostly Cloudy
6:00 AM50.0 °F50.0 °F100 %29.89 in6.2 miWSW (250°)10.4 mphMostly Cloudy
6:30 AM50.0 °F50.0 °F100 %29.89 in6.2 miWest (260°)6.9 mphMostly Cloudy
7:00 AM50.0 °F49.0 °F95 %29.92 inWSW (250°)4.6 mphPartly Cloudy
7:00 AM50.0 °F48.2 °F94 %29.92 in6.2 miWSW (250°)4.6 mphMostly Cloudy
7:30 AM48.2 °F48.2 °F100 %29.92 in5.6 miSW (230°)6.9 mphMostly Cloudy
8:00 AM48.2 °F46.4 °F93 %29.92 in6.2 miWSW (240°)8.1 mphMostly Cloudy
8:30 AM48.2 °F48.2 °F100 %29.95 in6.2 miWSW (240°)8.1 mphMostly Cloudy
9:00 AM50.0 °F48.2 °F94 %29.95 in6.2 miWSW (250°)8.1 mphMostly Cloudy
9:30 AM48.2 °F48.2 °F100 %29.95 in6.2 miSW (230°)6.9 mphMostly Cloudy
10:00 AM50.0 °F50.0 °F100 %29.98 in6.2 miWSW (250°)8.1 mphScattered Clouds
10:30 AM50.0 °F50.0 °F100 %29.98 in6.2 miWSW (240°)8.1 mphMostly Cloudy
11:00 AM50.0 °F50.0 °F100 %30.01 in6.2 miWNW (290°)10.4 mphRainLight Rain
11:30 AM50.0 °F50.0 °F100 %30.01 in6.2 miWest (270°)5.8 mphMostly Cloudy
12:00 PM51.8 °F50.0 °F94 %30.01 in6.2 miWNW (300°)6.9 mphMostly Cloudy
12:30 PM51.8 °F50.0 °F94 %30.01 in6.2 miWest (280°)6.9 mphRainLight Rain
1:00 PM52.0 °F50.0 °F89 %30.03 inWNW (300°)11.5 mphPartly Cloudy
1:00 PM51.8 °F50.0 °F94 %30.01 in6.2 miWNW (300°)11.5 mphMostly Cloudy
1:30 PM51.8 °F48.2 °F88 %30.01 in6.2 miNW (320°)12.7 mphMostly Cloudy
2:00 PM51.8 °F46.4 °F82 %30.01 in6.2 miNW (320°)9.2 mphScattered Clouds
2:30 PM53.6 °F48.2 °F82 %30.01 in6.2 miWNW (300°)6.9 mphScattered Clouds
3:00 PM53.6 °F46.4 °F77 %30.04 in6.2 miWNW (300°)12.7 mphMostly Cloudy
3:30 PM53.6 °F46.4 °F77 %30.04 in6.2 miWNW (300°)11.5 mphMostly Cloudy
4:00 PM53.6 °F44.6 °F72 %30.04 in6.2 miWNW (300°)12.7 mphOvercast
4:30 PM51.8 °F42.8 °F71 %30.04 in6.2 miNW (310°)11.5 mphOvercast
5:00 PM51.8 °F44.6 °F76 %30.06 in6.2 miNW (310°)9.2 mphMostly Cloudy
5:30 PM50.0 °F42.8 °F76 %30.06 in6.2 miNW (320°)6.9 mphMostly Cloudy
6:00 PM50.0 °F44.6 °F82 %30.06 in6.2 miWNW (300°)5.8 mph
6:30 PM48.2 °F42.8 °F82 %30.09 in6.2 miWNW (290°)4.6 mph
7:00 PM47.0 °F44.0 °F83 %30.12 inWest (270°)4.6 mphPartly Cloudy
7:00 PM46.4 °F42.8 °F87 %30.09 in6.2 miWest (270°)4.6 mph
7:30 PM46.4 °F42.8 °F87 %30.12 in6.2 miWest (270°)5.8 mph
8:00 PM46.4 °F42.8 °F87 %30.12 in6.2 miWest (260°)5.8 mph
8:30 PM46.4 °F42.8 °F87 %30.12 in6.2 miWNW (290°)5.8 mph
9:00 PM46.4 °F42.8 °F87 %30.15 in6.2 miWNW (290°)6.9 mph
9:30 PM44.6 °F42.8 °F93 %30.15 in6.2 miWNW (290°)6.9 mph
10:00 PM44.6 °F41.0 °F87 %30.15 in6.2 miWest (280°)5.8 mph
10:30 PM42.8 °F41.0 °F93 %30.18 in6.2 miWest (270°)4.6 mph
11:00 PM42.8 °F41.0 °F93 %30.18 in6.2 miWest (280°)3.5 mphMostly Cloudy
11:30 PM42.8 °F42.8 °F100 %30.21 in6.2 miWest (260°)4.6 mphRainLight Rain
Hourly data recorded from LFBD, located miles away from Bordeaux, France







STORIES FROM OUR PARTNERS